Powrót do katalogu

STARLINK-30168

AktywnyŁącznośćVLEO
NORAD 57513·PAYLOAD·🇺🇸 United States

Wystrzelony Aug 7, 2023 z Cape Canaveral Space Force Station

Loading…

Następne Przeloty (najbliższe 24 godziny)

TLE

ŚwieżeSource: CelesTrak SupGP

Epoka: Sep 14, 2026, 20:58 UTC

1 57513C 23113U   26257.87409722  .00052231  00000+0  18919-2 0  2571
2 57513  43.0042  27.3620 0001747 275.3390  12.8638 15.27551146    10

Śledź STARLINK-30168 w czasie rzeczywistym z AllMySat

Download on the App Store